Weather Roundup
Issued by NWS Springfield, MO

Home | Current Version | Previous Version | Text Only | Print | Product List | Glossary On
Versions: 1 2 3 4 5 6 7 8 9 10 11 12 13 14 15 16 17 18 19 20 21 22 23 24 25 26 27 28 29 30 31 32 33 34 35 36 37 38 39 40 41 42 43 44 45 46 47 48 49 50
000
NZUS99 KSGF 271707
HRRSGF

HOURLY WEATHER
NATIONAL WEATHER SERVICE SPRINGFIELD MO
1100 AM CST TUE JAN 27 2015

......SGF CWA......

CITY           SKY/WX    TMP DP  RH WIND       PRES   REMARKS
SPRINGFIELD    SUNNY     47  34  60 CALM      30.17R
JOPLIN         SUNNY     50  34  54 NE6       30.19S
WEST PLAINS    SUNNY     48  32  53 VRB3      30.16R
ROLLA          SUNNY     42  33  70 NW3       30.15R
OSAGE BEACH    SUNNY     45  32  61 NE3       30.18R
BRANSON        SUNNY     54  36  50 W5        30.18R

......SURROUNDING SGF CWA......

CITY           SKY/WX    TMP DP  RH WIND       PRES   REMARKS
CHANUTE        SUNNY     51  35  54 SE7       30.18R
PARSONS        SUNNY     54  35  48 VRB5      30.19R
COFFEYVILLE    SUNNY     54  37  52 E6        30.18S
EMPORIA        SUNNY     51  35  54 SE10      30.15S
GROVE OK       SUNNY     55  37  50 E3        30.20S
ROGERS AR      SUNNY     54  33  45 CALM      30.19R
HARRISON AR    SUNNY     52  33  48 VRB6      30.17R
NEAR YELLVILLE SUNNY     52  34  50 NE3       30.17S

......KANSAS AND MISSOURI......

CITY           SKY/WX    TMP DP  RH WIND       PRES   REMARKS
KANSAS CTY INT MOSUNNY   45  34  65 E6        30.17R
DOWNTOWN KC    SUNNY     46  33  60 E7        30.18S
COLUMBIA       SUNNY     42  33  70 CALM      30.18R
SEDALIA        SUNNY     46  33  60 N6        30.20R
ST JOSEPH      SUNNY     44  34  67 E6        30.18S
ST LOUIS       PTSUNNY   42  32  67 N8        30.17R
SPIRIT OF STL  MOSUNNY   44  31  60 N10       30.17R
KIRKSVILLE     CLOUDY    37  33  85 CALM      30.18R
WICHITA        MOSUNNY   58  34  40 S12       30.13S
TOPEKA         SUNNY     48  34  58 VRB3      30.18R
OLATHE         SUNNY     46  34  62 SE6       30.17R

......TENNESSEE......

CITY           SKY/WX    TMP DP  RH WIND       PRES   REMARKS
MEMPHIS        MOSUNNY   53  36  52 NE13      30.15R
NASHVILLE      PTSUNNY   42  33  70 N8        30.08R

......ARKANSAS.......

CITY           SKY/WX    TMP DP  RH WIND       PRES   REMARKS
FAYETTEVILLE   SUNNY     55  30  38 CALM      30.19R
FT SMITH       SUNNY     60  35  39 CALM      30.17S
LITTLE ROCK    SUNNY     61  33  35 VRB7      30.17R

......OKLAHOMA.......

CITY           SKY/WX    TMP DP  RH WIND       PRES   REMARKS
TULSA          SUNNY     57  37  47 VRB5      30.17S
PONCA CITY     SUNNY     59  34  39 SE8       30.16S
MCALESTER      SUNNY     64  38  38 MISG      30.19R
OKLAHOMA CITY  SUNNY     65  36  34 S5        30.18F

......IOWA............

CITY           SKY/WX    TMP DP  RH WIND       PRES   REMARKS
DES MOINES     MOSUNNY   40  31  70 E5        30.18R
QUAD CITIES    CLOUDY    29  22  75 N10       30.19R WCI  20

......ILLINOIS........

CITY           SKY/WX    TMP DP  RH WIND       PRES   REMARKS
QUINCY         SUNNY     41  31  67 NE12      30.17R
CHICAGO        CLOUDY    29  20  69 N8        30.16R WCI  21



USA.gov is the U.S. government's official web portal to all federal, state and local government web resources and services.